Home > Weather > Hopedale > Past weeks

Flag for Canada Weather for the Past 2 Weeks in Hopedale, Newfoundland and Labrador, Canada

Now
33 °F

Chilly.


Feels Like: 17 °F
Forecast: N/A
Wind: 40 mph from North

Location: Hopedale

Current Time: Apr 30, 2016 at 5:43:26 PM

Latest Report: Apr 30, 2016 at 5:00 PM


Visibility: N/A

Pressure: 30.15 "Hg

Humidity: 89%

Dew Point: 30 °F

Location of HopedaleLocation

Historic Weather in Hopedale — Graph

°F

Hopedale Temperature Yesterday

Maximum temperature yesterday: 33 °F (at 12:00 PM)
Minimum temperature yesterday: 22 °F (at 12:00 AM)
Average temperature yesterday: 29 °F

High & Low Weather Summary for the Past Weeks

 TemperatureHumidityPressure
High44 °F (Apr 23, 2:00 PM)100% (Apr 22, 1:00 AM)30.68 "Hg (Apr 22, 1:00 AM)
Low9 °F (Apr 27, 5:00 AM)46% (Apr 16, 5:00 PM)29.31 "Hg (Apr 29, 11:00 AM)
Average26 °F82%29.93 "Hg
* Reported Apr 15 4:00 PM — Apr 30 4:00 PM, Hopedale, Weather by CustomWeather, © 2016

Note: Actual official high and low records may vary slightly from our data, if they occured in-between our weather recording intervals... More about our weather records

Advertising

Hopedale Weather History for the Previous 24 Hours

Scroll right to see more
 ConditionsComfort  
Time TempWeatherWind HumidityBarometerVisibility
4:00 PM
Sat, Apr 30
32 °FChilly.39 mph93%30.14 "HgN/A
3:00 PM31 °FChilly.40 mph95%30.13 "HgN/A
2:00 PM31 °FChilly.39 mph96%30.12 "HgN/A
1:00 PM32 °FChilly.39 mph92%30.11 "HgN/A
12:00 PM31 °FChilly.39 mph94%30.09 "HgN/A
11:00 AM31 °FChilly.40 mph95%30.07 "HgN/A
10:00 AM30 °FChilly.40 mph95%30.04 "HgN/A
9:00 AM30 °FChilly.40 mph95%30.02 "HgN/A
8:00 AM29 °FChilly.40 mph96%30.00 "HgN/A
7:00 AM28 °FChilly.40 mph98%29.96 "HgN/A
6:00 AM28 °FChilly.39 mph99%29.94 "HgN/A
5:00 AM28 °FChilly.39 mph100%29.91 "HgN/A
4:00 AM28 °FChilly.39 mph99%29.88 "HgN/A
3:00 AM28 °FChilly.39 mph99%29.85 "HgN/A
2:00 AM29 °FChilly.39 mph100%29.83 "HgN/A
1:00 AM29 °FChilly.39 mph100%29.80 "HgN/A
12:00 AM29 °FChilly.39 mph100%29.78 "HgN/A
11:00 PM
Fri, Apr 29
28 °FChilly.39 mph100%29.74 "HgN/A
10:00 PM29 °FChilly.39 mph100%29.69 "HgN/A
9:00 PM29 °FChilly.39 mph100%29.65 "HgN/A
8:00 PM30 °FChilly.39 mph100%29.59 "HgN/A
7:00 PM30 °FChilly.39 mph100%29.54 "HgN/A
6:00 PM30 °FChilly.N/A100%29.50 "HgN/A
5:00 PM31 °FChilly.39 mph100%29.45 "HgN/A
Weather by CustomWeather, © 2016

See weather overviewHow to use our weather pages